This demonstration page uses our WeatherBlox Daily Observations layout. Learn more.

Left ArrowRight Arrow

39.29038, -76.61219

Hourly Observations for July 18, 2021

Temp ( °F °C ) Dew Point ( °F °C ) Humidity (%) Winds ( mph kmh ) Pressure ( in mb ) Visibility ( mi km ) Precip ( " mm )
12:54 am 00:54 Mostly Cloudy 75 23.9 70 21.1 84 84 WSW 3 6 29.98 1015 10 16 N/A
1:54 am 01:54 Partly Cloudy 74 23.3 70 21.1 88 88 N N/A 29.98 1015 10 16 N/A
2:54 am 02:54 Mostly Cloudy 75 23.9 70 21.1 84 84 SW 6 9 29.97 1015 10 16 N/A
3:54 am 03:54 Mostly Cloudy 75 23.9 69 20.6 82 82 WSW 3 6 29.97 1015 10 16 N/A
4:54 am 04:54 Mostly Cloudy 75 23.9 69 20.6 82 82 WSW 7 11 29.98 1015 10 16 N/A
5:54 am 05:54 Partly Cloudy 74 23.3 68 20 82 82 W 9 15 30.00 1016 10 16 N/A
6:54 am 06:54 Partly Cloudy 74 23.3 66 18.9 76 76 W 13 20 30.01 1016 10 16 N/A
7:54 am 07:54 Partly Cloudy 75 23.9 63 17.2 66 66 W 16 26 30.02 1017 10 16 N/A
8:54 am 08:54 Partly Cloudy 76 24.4 62 16.7 62 62 WNW 16 26 30.04 1017 10 16 N/A
9:54 am 09:54 Partly Cloudy 78 25.6 62 16.7 58 58 WNW 15 24 30.04 1017 10 16 N/A
10:54 am 10:54 Mostly Cloudy 80 26.7 61 16.1 52 52 W 18 30 30.04 1017 10 16 N/A
11:54 am 11:54 Mostly Cloudy 79 26.1 61 16.1 54 54 W 18 30 30.04 1017 10 16 N/A
12:54 pm 12:54 Mostly Cloudy 82 27.8 61 16.1 49 49 W 21 33 30.03 1017 10 16 N/A
1:54 pm 13:54 Mostly Cloudy 80 26.7 62 16.7 54 54 WNW 13 20 30.02 1017 10 16 N/A
2:54 pm 14:54 Mostly Cloudy 80 26.7 62 16.7 54 54 W 15 24 30.02 1017 10 16 N/A
3:54 pm 15:54 Cloudy 80 26.7 62 16.7 54 54 WNW 14 22 30.03 1017 10 16 N/A
4:54 pm 16:54 Cloudy 77 25 60 15.6 56 56 WNW 12 19 30.03 1017 10 16 N/A
5:54 pm 17:54 Cloudy 77 25 61 16.1 58 58 WNW 8 13 30.03 1017 10 16 N/A
6:54 pm 18:54 Mostly Cloudy 78 25.6 62 16.7 58 58 NW 8 13 30.03 1017 10 16 N/A
7:54 pm 19:54 Mostly Cloudy 77 25 61 16.1 58 58 W 7 11 30.02 1017 10 16 N/A
8:54 pm 20:54 Partly Cloudy 75 23.9 62 16.7 64 64 SW 3 6 30.03 1017 10 16 N/A
9:54 pm 21:54 Mostly Cloudy 74 23.3 62 16.7 67 67 WSW 3 6 30.04 1017 10 16 N/A
10:54 pm 22:54 Mostly Cloudy 73 22.8 62 16.7 69 69 W 5 7 30.04 1017 10 16 N/A
11:54 pm 23:54 Cloudy 74 23.3 63 17.2 69 69 WSW 3 6 30.05 1018 10 16 N/A

Powered by AerisWeather